Voltar ao catálogo

STARLINK-34377

AtivoComunicaçõesVLEO
NORAD 64279·PAYLOAD·🇺🇸 United States

Lançado Jun 4, 2025 de Vandenberg Space Force Base

Loading…

Próximas Passagens (próximas 24 horas)

TLE

AtualizadoSource: CelesTrak SupGP

Época: Sep 14, 2026, 21:11 UTC

1 64279C 25120Z   26257.88312500 -.00006808  00000+0 -20121-3 0  2576
2 64279  53.1595 312.2350 0001011  74.7937 239.8913 15.34382279    14

Acompanhe STARLINK-34377 em tempo real com AllMySat

Download on the App Store